Tracking 22879 objects as of 21-Apr-2021
HD Live streaming from Space Station
objects crossing your sky now

COSMOS 2168

Track COSMOS 2168 now!
10-day predictions
COSMOS 2168 is classified as:


NORAD ID: 21782
Int'l Code: 1991-077D
Perigee: 1,396.6 km
Apogee: 1,418.6 km
Inclination: 82.6 °
Period: 113.8 minutes
Semi major axis: 7778 km
RCS: 1.1161 m2 (large)
Launch date: November 12, 1991
Source: Commonwealth of Independent States (former USSR) (CIS)
Launch site: PLESETSK MISSILE AND SPACE COMPLEX (PKMTR)
aabbcc
Your satellite tracking list
Your tracking list is empty




NASA's NSSDC Master Catalog

Two Line Element Set (TLE):
1 21782U 91077D   21110.77328097  .00000015  00000-0  24189-4 0  9996
2 21782  82.5979 338.7630 0014124   3.5116  49.9060 12.65468920359570
Source of the keplerian elements: AFSPC